Location: Brompton
(51.4000°N, 0.5333°E)
Time: 17:32:35
(UTC+00:00)

Cosmos 2278 Rocket - Pass Details

Date: 11 May 2021
Orbit: 841 x 845 km, 71.0° (Epoch: 15 June)

Event Time Altitude Azimuth Distance (km) Brightness Sun altitude
Rises 20:18:02 0° 169° (S) 3,385 4.9 -6.0°
Reaches altitude 10° 20:20:51 10° 157° (SSE) 2,455 4.1 -6.4°
Maximum altitude 20:25:22 25° 103° (ESE) 1,625 3.2 -6.9°
Drops below altitude 10° 20:29:54 10° 50° (NE) 2,469 4.6 -7.4°
Sets 20:32:43 0° 38° (NE) 3,409 5.4 -7.8°
